Presure
182 191 163 181 119 120 168 152 154 132 159 165 167 156 123 134 129 142 123 195 128 182 158 141 170 183 159 194 158 161 159 185 176 199 204 197 187 194 201 175 192 181 156 185 196 161 192 189 156
178 173 179 170 173 180 170 162 174 168 164 123 175 154 138 122 141 139 140 122 151 158 151 184 152 172 187 189 184 179 190 173 185 182 181 190 189 152 194 124 172 159 154 186 158 162 194 179 158
176 152 173 110 189 132 160 180 185 147 136 192 191 184 134 154 178 179 142 191 120 135 184 181 175 184 188 189 182 167 183 190 194 182 171 201 189 189 191 157 183 189 179 182 141 172 185 190 196
176 192 183 161 184 117 140 146 125 118 135 183 150 138 136 137 152 121 158 132 154 122 181 112 181 179 176 187 181 179 168 179 144 191 193 183 195 180 188 185 126 185 185 183 186 198 181 190 191
178 183 164 176 168 179 164 183 178 182 225 131 196 208 196 148 190 194 145 188 205 132 108 177 189 157 179 181 180 178 171 178 176 176 185 184 141 201 191 195 187 175 183 178 167 182 182 191 187
182 175 186 138 181 187 184 194 182 219 231 225 199 201 193 184 190 178 167 185 149 186 189 181 189 167 180 184 180 179 177 181 190 176 184 174 175 192 189 190 180 182 180 180 179 171 177 173 191
185 187 177 174 179 193 171 186 181 203 202 220 215 196 187 193 172 187 180 177 193 187 175 170 181 181 181 187 155 175 171 168 186 174 184 185 183 192 189 173 184 187 183 178 186 173 172 182 179
195 171 181 178 190 192 170 178 204 176 202 195 211 205 184 192 184 180 178 188 112 186 174 172 183 185 195 195 182 180 184 171 177 187 168 185 163 188 196 184 193 190 181 131 169 177 181 179 173
174 184 179 150 177 180 172 170 183 161 163 198 198 197 207 198 187 183 183 185 183 183 183 188 190 183 170 165 183 185 184 178 176 175 188 135 172 173 176 169 171 193 185 173 175 180 180 182 177
199 139 174 185 176 166 172 188 161 174 169 190 198 190 189 169 195 189 187 184 183 184 188 188 145 190 192 184 180 187 185 182 182 169 187 187 167 181 173 176 182 192 190 183 182 182 174 178 178
189 177 184 170 171 175 177 182 153 169 191 152 192 182 199 141 172 189 191 192 190 184 178 171 177 185 183 188 189 185 184 175 173 170 175 171 181 175 165 160 170 203 186 189 190 181 177 175 176
160 176 167 170 162 176 166 177 177 145 149 183 169 198 176 168 133 184 183 189 187 193 190 189 184 179 181 182 181 175 176 173 180 174 181 179 179 179 164 167 184 167 191 190 183 183 190 174 175
164 185 155 175 168 151 155 179 174 168 158 160 183 156 157 170 133 140 134 186 129 182 175 182 189 187 187 186 182 175 186 179 178 173 177 177 159 176 175 169 180 180 189 192 184 191 191 186 181
151 144 158 163 156 172 149 170 174 151 173 153 129 153 143 181 154 163 175 190 188 142 184 177 172 173 173 171 183 180 182 179 172 173 178 148 172 163 165 171 178 164 174 186 174 181 194 190 185
200 163 175 194 157 155 151 164 150 169 160 138 168 150 136 160 126 113 132 160 179 123 189 165 160 192 183 182 181 175 175 181 176 182 181 177 176 178 181 173 187 185 170 180 165 181 174 192 192
162 177 154 174 157 173 151 141 159 153 174 175 138 185 157 173 142 139 144 138 143 142 134 124 179 165 165 145 154 178 180 166 168 179 178 175 174 166 175 165 172 172 174 164 127 98 172 180 189
157 171 139 158 155 163 155 167 150 170 168 157 163 178 136 147 177 140 137 162 181 151 132 164 154 159 176 151 163 166 174 177 177 176 176 174 177 176 163 173 170 162 158 143 178 180 164 183 188
169 151 166 169 155 160 142 161 66 167 159 168 159 177 165 184 157 170 169 175 154 139 147 150 146 133 161 156 150 148 153 172 146 170 170 177 169 181 162 175 172 174 153 178 166 184 190 176 183
166 170 163 142 166 161 142 155 164 170 182 154 158 161 173 167 156 178 185 146 137 145 170 143 158 150 188 190 138 200 171 145 149 177 177 173 163 143 166 173 175 180 186 181 169 180 185 182 171
175 164 167 172 172 157 145 160 152 155 166 173 163 196 202 168 182 175 189 191 184 184 151 142 150 149 181 181 178 179 186 187 180 152 148 159 160 170 153 171 181 173 181 179 158 176 178 163 184
183 170 170 168 165 152 156 164 158 136 166 170 164 189 183 208 195 252 173 188 179 198 175 168 153 144 186 188 150 162 149 187 170 199 172 178 164 156 174 156 163 176 162 183 175 172 162 182 188
188 160 176 171 183 167 159 182 156 194 174 160 179 172 213 185 170 170 241 249 200 213 231 178 221 206 151 172 148 142 170 150 188 183 190 157 156 150 152 176 168 148 150 186 180 178 173 172 175
174 168 152 170 208 190 186 164 184 170 201 197 161 111 191 194 197 219 170 198 237 207 160 212 170 204 201 168 163 224 162 181 141 124 173 176 190 137 131 151 180 174 178 177 179 181 161 180 180
179 190 178 186 185 185 171 155 141 95 84 90 201 196 163 206 158 200 134 176 180 210 197 192 195 187 173 197 163 197 179 165 168 164 159 163 178 180 173 163 162 170 164 158 174 179 169 170 166
200 155 190 198 180 194 174 153 184 60 177 195 195 197 110 83 199 207 125 194 188 202 199 180 196 126 121 191 193 199 158 175 167 153 169 167 157 144 174 155 167 179 161 172 161 156 178 167 165
178 191 156 196 205 187 182 185 200 192 178 188 199 198 174 158 211 182 99 98 178 212 211 198 181 173 112 198 184 184 204 161 149 152 162 165 177 172 174 178 147 140 148 169 169 181 145 177 182
183 189 196 186 157 158 175 158 207 213 195 159 149 217 215 210 159 218 190 204 148 196 163 207 211 109 189 188 206 213 211 161 168 156 160 147 176 177 192 170 176 164 124 182 179 189 178 130 162
186 194 187 194 197 183 201 208 194 187 177 205 210 212 213 202 206 163 213 193 214 223 207 206 114 250 223 194 185 207 202 179 164 188 171 126 161 144 160 159 168 153 161 150 189 182 164 177 187
186 192 196 188 197 207 204 210 197 200 202 180 213 218 200 209 216 221 219 236 331 319 312 326 291 298 258 183 206 189 188 252 175 182 160 172 162 178 172 170 168 179 179 175 154 194 172 194 187
196 203 188 196 202 202 217 200 209 205 211 218 217 205 208 218 227 294 363 343 356 339 329 325 296 285 251 292 240 229 165 215 187 173 165 160 178 188 184 169 159 174 190 180 193 198 190 176 202
Wind_Speed
37 36 51 45 37 35 48 44 56 59 56 46 49 52 44 37 45 47 46 44 46 48 45 44 48 49 47 45 46 46 46 36 34 32 29 25 27 28 27 39 29 35 53 29 24 51 27 31 50
41 46 41 49 53 58 55 54 53 52 54 60 54 62 54 54 53 49 46 46 44 49 40 50 43 48 47 44 44 43 39 39 36 32 31 27 27 42 27 47 42 39 42 30 56 38 28 37 39
43 43 44 48 50 44 61 55 52 53 47 54 58 56 43 57 59 50 45 43 53 39 46 50 53 48 47 46 46 44 41 39 38 39 36 32 27 28 28 50 33 30 33 33 47 43 33 34 30
47 46 44 56 50 25 40 64 48 40 54 48 57 56 51 48 58 38 43 50 49 43 55 62 50 53 51 46 46 44 44 41 38 36 34 32 32 29 28 30 47 33 31 32 30 29 38 36 33
53 50 42 48 51 48 54 52 53 49 39 50 46 41 50 57 58 50 49 47 44 48 40 49 44 44 52 51 48 44 46 44 40 39 36 32 48 32 29 30 31 34 34 35 43 34 37 38 35
54 50 49 43 44 44 43 45 48 38 33 32 40 40 47 57 57 56 49 47 51 43 44 48 46 54 52 50 50 47 45 46 40 40 37 37 33 34 30 30 33 34 35 36 36 41 40 44 35
48 47 46 43 42 40 45 40 48 34 29 30 32 38 46 47 51 52 51 51 51 48 46 49 47 48 50 47 58 48 46 47 41 42 37 35 34 36 33 31 32 33 34 35 35 41 44 39 39
49 46 49 39 40 31 40 36 37 45 33 35 30 31 41 45 49 53 56 52 61 50 48 48 46 49 46 41 48 52 50 48 44 40 40 36 40 35 38 35 38 33 36 49 39 41 42 41 43
41 48 45 36 35 28 39 41 36 47 50 33 29 26 29 37 46 50 53 50 48 52 52 50 50 47 47 40 45 49 50 48 45 43 42 41 35 37 36 37 33 37 36 38 38 39 42 41 42
42 41 45 34 31 39 30 46 40 37 47 38 34 31 31 48 35 42 46 48 48 47 47 48 59 48 45 44 43 45 46 48 46 47 42 39 38 36 37 36 36 41 40 39 37 40 44 42 42
41 37 44 36 25 36 41 46 52 39 36 46 36 41 29 41 42 41 45 47 46 49 50 52 50 46 45 47 45 43 44 49 47 48 45 42 42 39 39 45 38 43 38 38 39 41 45 47 44
39 33 44 46 36 44 29 41 40 49 47 31 35 34 40 38 44 43 42 45 45 47 47 47 46 48 50 50 47 45 47 44 45 46 46 44 43 45 42 40 40 41 40 42 43 44 44 48 49
41 46 47 52 53 45 63 51 50 53 52 47 34 41 48 44 44 42 43 49 41 45 46 46 47 50 51 49 49 51 48 48 46 47 47 43 49 47 43 42 42 42 42 43 43 46 48 50 50
52 57 49 41 45 45 36 45 50 57 46 46 41 41 44 35 51 46 51 52 54 41 47 46 46 49 50 51 51 52 50 47 50 48 48 57 48 49 44 45 46 43 42 41 40 44 51 53 54
55 41 56 58 44 51 31 50 55 52 45 65 37 55 56 39 49 57 37 54 52 55 50 50 53 50 52 51 50 52 51 53 51 47 48 49 48 52 51 47 50 45 45 46 46 44 46 53 55
53 54 47 59 50 56 43 68 58 60 63 57 50 62 50 38 64 47 44 37 64 50 44 45 54 57 57 48 53 54 53 55 54 49 49 53 51 53 56 47 51 49 49 49 47 36 47 51 54
63 59 75 60 63 59 50 60 72 69 63 53 41 69 69 62 41 62 70 59 56 64 55 61 56 52 58 50 49 51 58 59 57 54 52 55 56 57 59 57 55 59 50 63 50 50 52 54 55
65 59 67 71 70 60 72 68 19 72 61 64 61 62 55 74 76 54 71 48 64 70 66 61 55 49 53 62 50 59 58 64 51 59 56 55 63 65 61 61 60 61 58 58 53 55 57 51 54
69 72 68 74 77 68 73 68 78 82 80 69 61 60 65 61 66 75 78 80 77 56 66 76 73 56 65 59 56 58 64 57 59 65 58 57 63 61 68 67 67 67 64 61 53 57 55 53 55
76 72 81 79 83 69 77 79 80 77 80 73 80 81 80 68 83 79 82 77 76 74 76 57 84 80 58 44 51 60 56 48 59 65 60 67 64 69 57 71 68 66 67 63 65 61 58 60 60
77 75 80 78 84 78 80 78 90 79 89 84 82 82 85 75 85 68 79 89 73 80 82 78 85 72 78 57 59 60 56 51 58 57 69 69 68 77 72 58 62 65 59 67 66 65 56 59 62
84 72 82 82 87 86 91 83 93 75 83 91 88 90 71 88 82 80 63 59 81 68 55 75 68 78 87 65 74 61 57 75 51 55 60 75 75 70 74 78 75 51 54 71 68 67 67 64 64
84 83 76 87 83 83 79 88 61 87 75 80 91 49 74 74 75 83 76 66 64 64 68 59 77 68 70 78 66 68 63 57 75 69 66 69 68 60 72 72 79 80 81 75 69 66 61 70 72
94 94 87 80 79 79 81 68 61 50 26 30 83 80 86 85 62 72 54 89 71 73 76 71 71 77 66 70 77 65 62 68 68 72 81 79 75 77 83 80 80 82 73 68 70 72 67 67 69
93 73 93 97 85 89 79 68 73 17 76 90 86 88 51 31 84 88 53 82 86 72 82 84 82 43 51 73 74 72 87 72 73 74 78 84 87 73 88 82 78 86 77 78 68 63 74 68 73
86 96 82 103 100 77 79 80 95 96 87 82 94 90 80 71 101 74 45 47 74 93 90 92 92 86 56 83 76 70 55 78 81 74 72 83 83 93 94 91 68 66 56 80 81 85 64 77 78
92 100 104 92 86 82 80 87 104 107 90 82 77 119 115 99 75 118 91 88 79 89 88 108 117 63 94 90 86 76 66 85 79 91 76 93 81 80 80 88 103 92 52 93 92 89 85 57 76
102 107 100 109 111 91 102 108 89 91 98 118 125 127 120 96 109 78 120 96 133 137 113 108 61 90 100 92 76 91 84 77 94 74 90 58 84 75 89 80 85 56 89 73 95 96 78 90 91
102 106 110 98 108 124 105 107 94 104 109 94 132 135 109 136 144 145 131 145 105 99 95 93 87 70 68 80 78 74 60 62 85 76 99 100 101 93 113 105 95 110 108 97 72 93 92 99 96
113 115 100 111 113 114 132 105 122 118 129 137 136 116 128 152 160 122 78 94 72 79 82 82 83 69 83 78 79 85 93 82 101 106 110 91 103 104 105 96 74 108 115 102 109 106 102 90 100
Wind_Direction
301 292 287 288 296 255 278 279 270 284 287 283 285 275 258 265 277 290 262 281 273 278 281 273 276 279 274 280 270 265 267 284 267 289 292 285 276 278 281 263 270 263 271 269 283 271 269 263 272
298 291 286 285 282 279 279 275 281 282 275 279 286 283 274 280 286 292 267 262 276 285 270 280 275 275 279 281 281 279 286 272 285 281 275 283 277 275 277 267 264 265 269 271 270 271 275 270 270
304 292 288 278 283 282 280 279 285 282 283 280 278 279 277 271 280 274 255 272 253 277 270 278 281 282 281 280 280 277 283 287 288 288 272 289 278 277 275 274 269 269 266 268 273 268 276 273 273
304 300 290 279 284 287 274 280 284 271 285 280 276 281 284 280 284 270 269 282 276 279 276 277 276 278 278 279 279 280 275 284 275 290 290 283 288 274 276 271 267 270 268 268 274 273 271 275 274
306 303 286 286 281 288 286 298 283 290 285 282 278 271 275 274 278 277 265 281 273 266 277 275 273 276 275 278 280 281 280 282 284 283 290 287 280 288 279 274 269 265 269 267 270 271 271 274 275
305 296 292 277 290 297 295 297 287 297 292 283 272 268 268 273 278 280 278 277 272 274 274 275 272 271 278 280 283 284 284 286 289 282 289 283 281 293 280 276 269 266 265 266 266 265 267 269 274
301 291 284 288 293 290 282 301 291 298 294 289 265 263 270 269 275 281 280 278 284 281 271 273 278 281 281 281 273 284 283 283 288 282 289 291 288 288 284 274 275 271 267 264 269 265 266 269 271
294 287 283 290 292 296 281 294 300 289 295 278 283 266 265 267 269 276 279 280 257 279 274 274 280 279 280 279 277 282 283 283 285 288 279 289 274 290 286 285 282 278 271 277 263 266 267 267 269
286 284 285 285 289 296 283 277 294 281 283 283 280 277 269 261 264 268 274 277 278 281 282 283 284 279 274 283 280 280 283 283 282 283 285 277 277 281 280 274 277 282 278 273 265 266 267 268 267
280 277 287 289 291 277 288 305 276 283 282 297 291 277 270 276 260 263 267 270 276 279 282 280 273 283 286 283 279 280 281 283 283 281 287 288 276 287 282 285 288 285 279 276 271 268 265 267 268
284 295 297 282 276 297 301 312 274 274 291 281 282 282 270 274 265 270 271 273 274 273 276 279 283 284 281 281 282 279 279 278 280 280 285 282 285 285 274 271 281 278 281 278 274 266 266 267 267
271 299 289 297 268 291 295 300 292 298 279 277 271 291 281 274 285 275 272 275 277 274 277 280 282 284 282 280 278 277 276 278 279 280 280 281 283 284 274 282 284 278 280 276 270 271 270 266 267
287 298 265 299 289 266 289 296 294 273 296 268 290 291 289 290 289 273 288 275 283 277 284 287 281 281 281 283 281 279 278 276 276 277 276 280 280 282 282 278 284 281 281 279 278 277 274 269 267
274 284 296 292 274 293 263 292 287 275 293 276 282 274 288 278 285 296 295 283 288 285 290 288 286 287 284 284 285 283 280 276 278 279 276 274 278 277 276 280 283 273 279 279 279 282 276 273 272
286 293 302 288 276 282 265 293 264 290 275 293 285 265 289 257 293 257 274 295 293 278 281 284 284 277 277 275 275 276 276 280 278 276 275 275 276 279 279 279 282 285 277 278 269 283 277 276 274
299 300 280 299 276 290 260 263 283 263 295 296 290 300 258 281 271 270 267 279 287 277 267 262 277 281 282 279 281 277 276 273 275 274 273 275 275 274 277 272 280 278 279 278 273 273 278 279 278
286 295 270 287 276 284 277 294 287 294 293 263 263 293 285 276 286 270 281 277 285 272 265 281 278 280 274 274 278 279 278 278 276 277 276 277 273 273 276 278 278 272 268 283 280 282 272 280 283
294 282 296 293 279 289 263 294 267 289 280 294 276 300 272 296 276 275 276 266 283 282 276 281 282 258 275 274 276 281 284 277 273 275 274 272 276 275 273 280 279 279 265 280 278 278 275 279 277
294 291 295 266 290 288 267 288 292 291 289 278 278 277 279 280 262 291 286 257 279 262 285 278 282 261 279 272 263 274 268 277 278 275 271 271 277 266 278 275 276 277 276 276 272 277 275 277 276
286 292 290 289 288 275 273 293 281 278 290 285 290 286 283 268 286 283 284 277 275 277 279 266 274 277 268 264 279 281 274 274 270 276 275 276 272 270 271 277 274 275 272 273 272 277 278 275 276
287 285 283 282 284 281 284 288 286 278 286 285 286 284 287 284 287 311 274 283 278 277 271 276 266 279 278 278 263 264 262 271 266 256 264 264 267 275 269 271 273 272 275 270 273 275 267 274 272
286 281 282 284 277 275 279 281 279 280 281 285 278 283 303 280 281 282 300 269 282 278 270 275 274 272 268 270 274 264 257 270 263 267 259 269 271 272 276 267 272 262 268 269 269 272 274 277 275
290 288 277 285 287 281 287 275 279 273 296 297 284 280 293 288 285 308 280 294 273 272 275 265 267 266 270 260 259 270 251 256 269 267 261 261 255 263 269 275 264 269 271 269 269 268 267 271 272
287 284 282 284 285 284 284 282 277 264 266 271 300 290 276 297 295 299 280 279 273 264 267 266 267 272 270 269 262 270 247 250 254 263 269 266 261 259 258 260 270 268 265 266 268 268 269 271 272
286 279 290 285 288 294 287 286 292 278 288 299 298 296 276 277 297 297 265 292 267 274 266 263 266 267 267 259 257 257 259 256 252 268 262 265 272 266 260 267 259 258 263 264 271 270 265 267 271
293 289 284 292 291 288 285 293 303 294 291 291 300 296 287 274 303 284 271 281 266 283 284 265 263 263 276 253 255 248 249 253 256 259 269 271 271 266 264 260 263 264 263 266 272 264 264 263 264
295 292 294 293 284 284 276 281 306 306 301 279 271 305 304 294 275 303 267 284 268 263 287 281 284 278 257 253 260 256 244 248 239 253 248 260 258 272 260 259 261 266 271 258 263 262 265 274 267
297 295 296 297 299 292 303 303 302 297 292 305 305 305 303 292 293 273 293 261 291 287 278 276 274 269 254 257 262 248 253 237 243 228 237 273 257 261 264 264 262 264 266 267 258 261 270 269 266
296 297 297 296 300 299 303 304 304 303 302 288 305 304 297 301 298 294 289 290 272 269 266 260 262 256 257 260 247 245 236 228 240 222 246 234 254 245 252 260 266 263 265 269 266 260 266 267 269
294 294 298 300 300 300 302 305 304 303 305 304 303 299 297 297 294 288 270 272 266 263 262 259 251 241 238 236 220 236 243 226 226 236 247 258 238 248 248 259 272 265 261 267 264 260 260 271 260